Weather in Nantes

France     47°13′09″N   1°33′22″W
temp.,
°C
wind,
m/s
gust,
m/s
humid.,
%
clouds,
%
prec.,
mm/h
press.,
hPa
HPBL,
m
24 may, tue
tue2423:00+11w41088100 0.3 1009451
02:00+9w39914 0.4 1009198
05:00+8w33945 0.1 101051
08:00+11ssw2286100 0.1 1010108
11:00+14w5770100 0.6 10111065
14:00+17w5655100 1.1 10111564
17:00+18w664825 0.1 10111894
20:00+16w55593 0.1 10131156
25 may, wed
wed2523:00+10wsw34885 0.0 101559
02:00+10nnw2293100 0.0 101626
05:00+8n22935 0.0 101825
08:00+10wnw2283100 0.0 1019115
11:00+16w455889 0.0 10211096
14:00+19w66495 0.0 10211535
17:00+19w775894 0.0 10211410
20:00+17w687077 0.1 10221113
26 may, thu
thu2623:00+15wsw4784100 0.0 1024335
02:00+14wnw388260 0.0 1025272
05:00+10nw34930 0.0 102566
08:00+12nw24850 0.0 1026157
11:00+18nw33620 0.0 1027867
14:00+22nw33502 0.0 10261300
17:00+24wnw444938 0.0 10251613
20:00+20wnw66673 0.0 1025605
27 may, fri
fri2723:00+13wnw37940 0.0 1027123
02:00+11nne3495100 0.0 102771
05:00+10n239650 0.0 102755
08:00+12n24865 0.0 1027139
11:00+18n45639 0.0 1028804
14:00+22n455698 0.0 10261467
17:00+21n665881 0.1 10261493
20:00+20nnw36585 0.1 10251252
28 may, sat
sat2823:00+13n511685 0.0 1027269
02:00+9nne48744 0.0 1026146
05:00+7ne37815 0.0 1026129
08:00+10ne47715 0.0 1026208
11:00+17ne56500 0.0 1025945
14:00+21ne57365 0.0 10241535
17:00+22ne67355 0.0 10221714
20:00+20nne674351 0.0 10211275